| time (UTC) | temp F | wind direction | speed MPH | gust MPH | rain 1hr in | rain 24hr in | rain mn in | humidity % | barometer mb |
| 20260504233034 | 76 | 277 | 9.0 | 18.0 | 0.00 | 0.00 | 0.00 | 47 | 1009.6 |
| 20260504231535 | 76 | 271 | 10.0 | 22.0 | 0.00 | 0.00 | 0.00 | 47 | 1009.7 |
| 20260504224536 | 76 | 272 | 10.0 | 23.0 | 0.00 | 0.00 | 0.00 | 47 | 1010.0 |
| 20260504223031 | 76 | 274 | 10.0 | 21.0 | 0.00 | 0.00 | 0.00 | 47 | 1010.2 |
| 20260504221536 | 76 | 275 | 11.0 | 20.0 | 0.00 | 0.00 | 0.00 | 48 | 1010.3 |
| 20260504220033 | 76 | 274 | 9.0 | 20.0 | 0.00 | 0.00 | 0.00 | 47 | 1010.3 |
| 20260504213031 | 77 | 271 | 8.0 | 18.0 | 0.00 | 0.00 | 0.00 | 46 | 1010.7 |
| 20260504211532 | 76 | 279 | 10.0 | 20.0 | 0.00 | 0.00 | 0.00 | 47 | 1010.8 |
| 20260504210110 | 76 | 276 | 8.0 | 22.0 | 0.00 | 0.00 | 0.00 | 47 | 1010.9 |
| 20260504204532 | 75 | 269 | 8.0 | 16.0 | 0.00 | 0.00 | 0.00 | 47 | 1011.2 |
| 20260504203033 | 76 | 267 | 8.0 | 17.0 | 0.00 | 0.00 | 0.00 | 46 | 1011.3 |
| 20260504201534 | 76 | 263 | 6.0 | 14.0 | 0.00 | 0.00 | 0.00 | 46 | 1011.4 |
| 20260504200036 | 76 | 279 | 4.0 | 11.0 | 0.00 | 0.00 | 0.00 | 46 | 1011.6 |
| 20260504194534 | 76 | 253 | 4.0 | 16.0 | 0.00 | 0.00 | 0.00 | 46 | 1011.7 |
| 20260504193111 | 75 | 271 | 3.0 | 9.0 | 0.00 | 0.00 | 0.00 | 49 | 1011.9 |
| 20260504191608 | 75 | 260 | 3.0 | 9.0 | 0.00 | 0.00 | 0.00 | 49 | 1012.0 |
| 20260504190031 | 73 | 230 | 3.0 | 10.0 | 0.00 | 0.00 | 0.00 | 51 | 1012.2 |
| 20260504184537 | 72 | 237 | 4.0 | 15.0 | 0.00 | 0.00 | 0.00 | 51 | 1012.2 |
| 20260504183036 | 71 | 235 | 6.0 | 13.0 | 0.00 | 0.00 | 0.00 | 52 | 1012.3 |
| 20260504181535 | 70 | 243 | 8.0 | 16.0 | 0.00 | 0.00 | 0.00 | 54 | 1012.4 |
| 20260504180030 | 69 | 253 | 9.0 | 18.0 | 0.00 | 0.00 | 0.00 | 55 | 1012.5 |
| 20260504174530 | 68 | 266 | 10.0 | 19.0 | 0.00 | 0.00 | 0.00 | 56 | 1012.5 |
| 20260504173031 | 68 | 270 | 12.0 | 22.0 | 0.00 | 0.00 | 0.00 | 56 | 1012.5 |
| 20260504171535 | 68 | 279 | 9.0 | 18.0 | 0.00 | 0.00 | 0.00 | 57 | 1012.5 |
| 20260504130110 | 46 | 270 | 0.0 | 2.0 | 0.00 | 0.00 | 0.00 | 93 | 1012.0 |
| 20260504120143 | 46 | 202 | 0.0 | 2.0 | 0.00 | 0.00 | 0.00 | 91 | 1011.7 |
| 20260504090110 | 50 | 202 | 0.0 | 0.0 | 0.00 | 0.00 | 0.00 | 83 | 1011.7 |
| 20260504081533 | 52 | 202 | 0.0 | 3.0 | 0.00 | 0.00 | 0.00 | 82 | 1011.8 |
| 20260504044535 | 61 | 187 | 1.0 | 3.0 | 0.00 | 0.00 | 0.00 | 65 | 1010.7 |
| 20260504043032 | 63 | 202 | 0.0 | 2.0 | 0.00 | 0.00 | 0.00 | 63 | 1010.5 |
| 20260504041536 | 64 | 206 | 0.0 | 4.0 | 0.00 | 0.00 | 0.00 | 62 | 1010.3 |
| 20260504040043 | 66 | 203 | 1.0 | 3.0 | 0.00 | 0.00 | 0.00 | 59 | 1010.0 |
| 20260504034532 | 69 | 225 | 0.0 | 1.0 | 0.00 | 0.00 | 0.00 | 55 | 1009.8 |
| 20260504024536 | 80 | 90 | 0.0 | 2.0 | 0.00 | 0.00 | 0.00 | 35 | 1009.3 |
| 20260504023036 | 83 | 94 | 1.0 | 5.0 | 0.00 | 0.00 | 0.00 | 33 | 1009.4 |
| 20260504021536 | 86 | 90 | 0.0 | 4.0 | 0.00 | 0.00 | 0.00 | 29 | 1009.5 |
| 20260504020030 | 87 | 67 | 1.0 | 5.0 | 0.00 | 0.00 | 0.00 | 28 | 1009.6 |
| 20260504014535 | 88 | 66 | 2.0 | 4.0 | 0.00 | 0.00 | 0.00 | 28 | 1009.8 |
| 20260504013035 | 89 | 49 | 2.0 | 5.0 | 0.00 | 0.00 | 0.00 | 27 | 1009.9 |
| 20260504011532 | 89 | 73 | 2.0 | 5.0 | 0.00 | 0.00 | 0.00 | 27 | 1010.0 |
| 20260504004530 | 90 | 63 | 2.0 | 6.0 | 0.00 | 0.00 | 0.00 | 26 | 1010.3 |
| 20260504003037 | 90 | 67 | 2.0 | 8.0 | 0.00 | 0.00 | 0.00 | 25 | 1010.4 |
| 20260504001609 | 91 | 101 | 2.0 | 6.0 | 0.00 | 0.00 | 0.00 | 25 | 1010.5 |
| 20260504000141 | 92 | 56 | 2.0 | 7.0 | 0.00 | 0.00 | 0.00 | 24 | 1010.7 |
| 20260503234536 | 91 | 114 | 2.0 | 7.0 | 0.00 | 0.00 | 0.00 | 23 | 1011.0 |